Temp
2 2 3 3 3 3 3 3 3 2 2 2 2 2 2 2 1 1 0 -0 -0 -2 -2 -2 -1 -1 -1 -1 -3 -3 -4 -4 -4 -4 -4 -5 -5 -5 -5 -4 -3 -3 -3 -3 -2 -2 -2 -1 -1 -2 -1 -0 1 1
2 2 2 3 3 3 3 3 3 2 2 2 2 1 1 1 1 1 1 0 -0 -1 -2 -2 -2 -1 -1 -1 -2 -4 -3 -4 -4 -4 -5 -5 -5 -5 -5 -5 -3 -3 -4 -3 -3 -2 -2 -2 -2 -1 -1 -1 -0 1
1 2 2 2 2 3 3 3 3 3 2 2 2 1 1 1 1 0 -0 0 0 -0 -1 -1 -1 -2 -3 -2 -2 -2 -3 -4 -4 -4 -4 -5 -5 -5 -5 -5 -5 -4 -4 -4 -3 -3 -3 -3 -3 -2 -2 -2 -2 -1
1 2 2 2 2 2 2 3 3 3 2 2 2 2 1 1 1 0 0 0 -0 -0 -2 -1 -1 -1 -3 -3 -2 -2 -3 -4 -4 -4 -4 -4 -5 -5 -5 -5 -6 -6 -5 -5 -4 -4 -3 -3 -3 -2 -2 -2 -2 -2
1 1 2 2 2 2 2 3 3 3 2 2 2 2 1 1 1 1 0 0 0 -1 -1 -1 -1 -2 -1 -1 -3 -3 -3 -3 -3 -3 -4 -4 -4 -4 -5 -5 -5 -6 -6 -6 -6 -5 -5 -4 -4 -4 -3 -3 -3 -2
1 1 2 2 2 2 2 2 2 3 3 2 2 2 1 1 1 0 1 0 0 0 -0 -1 -1 -1 -1 -1 -2 -3 -2 -3 -3 -3 -3 -4 -4 -4 -4 -5 -5 -6 -6 -6 -6 -6 -5 -5 -5 -5 -5 -4 -4 -3
1 1 2 2 2 2 2 2 2 3 3 2 2 2 1 1 1 1 -0 0 0 -0 -0 -1 -1 -1 -1 -1 -2 -3 -2 -3 -3 -3 -3 -3 -4 -4 -4 -4 -5 -5 -6 -6 -6 -6 -6 -6 -6 -5 -5 -4 -4 -4
1 1 2 2 2 2 2 2 2 2 2 2 2 2 1 1 1 1 0 0 0 0 -0 -1 -0 -1 -0 -1 -1 -2 -2 -2 -2 -2 -3 -3 -3 -4 -4 -4 -4 -5 -6 -6 -6 -6 -6 -6 -6 -6 -5 -4 -4 -4
1 1 2 2 2 2 2 2 2 2 2 2 2 2 1 1 1 1 1 1 1 0 0 -1 0 -1 -0 -1 -1 -2 -2 -2 -2 -2 -2 -3 -2 -3 -3 -5 -5 -4 -5 -6 -6 -7 -7 -7 -6 -6 -5 -5 -4 -4
1 1 2 2 2 2 2 2 2 2 2 2 2 2 2 1 1 1 1 1 1 1 1 1 0 0 -1 -0 -1 -1 -2 -2 -2 -2 -2 -2 -3 -3 -3 -4 -4 -5 -5 -5 -6 -6 -6 -7 -7 -7 -6 -5 -4 -4
1 1 1 2 2 2 2 2 2 2 1 1 0 -0 1 1 1 1 1 1 1 0 0 0 1 1 1 0 -0 -1 -1 -1 -2 -1 -2 -2 -2 -3 -4 -4 -4 -4 -4 -5 -5 -5 -6 -6 -7 -7 -6 -6 -5 -5
1 1 2 2 2 2 2 2 2 1 1 1 1 1 1 1 1 1 1 1 1 1 1 0 0 -0 -0 -0 -1 -1 -1 -1 -2 -2 -2 -1 -2 -3 -4 -4 -4 -4 -5 -5 -5 -5 -5 -6 -7 -7 -7 -7 -7 -6
1 1 2 2 2 2 2 2 2 2 1 1 1 1 1 0 1 1 1 1 -0 -0 -0 0 1 1 -0 -0 -1 -2 -2 -2 -2 -2 -2 -2 -2 -3 -4 -4 -4 -4 -4 -5 -5 -5 -6 -6 -6 -7 -7 -7 -7 -7
1 1 1 2 2 2 2 2 2 2 1 1 0 1 1 1 1 1 1 1 1 0 0 1 0 -0 -1 -1 -1 -2 -2 -2 -2 -2 -3 -2 -3 -3 -4 -4 -4 -4 -4 -4 -4 -5 -6 -6 -6 -6 -7 -6 -7 -7
1 1 1 2 2 2 2 2 2 1 1 -0 1 1 2 2 1 1 1 0 1 1 1 1 1 -1 -1 -1 -1 -2 -2 -2 -2 -4 -4 -3 -3 -4 -4 -4 -4 -5 -5 -5 -5 -5 -5 -6 -6 -6 -7 -7 -7 -7
1 1 2 2 2 2 2 2 2 1 1 -0 1 2 2 2 2 2 2 1 0 1 1 0 -1 -1 -2 -2 -2 -2 -3 -3 -3 -4 -4 -4 -4 -4 -4 -4 -5 -5 -5 -5 -5 -5 -5 -6 -6 -7 -7 -7 -7 -7
1 1 2 2 2 2 2 2 2 2 0 1 1 1 2 1 1 1 1 -0 1 1 0 -1 -1 -2 -2 -3 -3 -3 -3 -4 -4 -4 -4 -5 -4 -4 -4 -5 -5 -5 -5 -5 -5 -6 -6 -6 -6 -6 -7 -7 -6 -7
2 1 2 2 2 2 2 2 2 0 1 2 2 2 2 2 2 1 0 -0 -0 -1 -1 -1 -2 -3 -3 -3 -3 -3 -4 -4 -4 -4 -4 -5 -4 -4 -4 -5 -6 -6 -6 -5 -4 -6 -6 -6 -6 -7 -6 -6 -7 -7
2 2 1 2 2 2 2 2 2 1 1 1 3 2 2 2 2 1 0 -1 -1 -1 -2 -2 -2 -3 -3 -3 -3 -4 -4 -4 -4 -5 -5 -4 -5 -5 -5 -5 -5 -6 -5 -5 -6 -6 -6 -6 -6 -6 -6 -6 -7 -7
1 1 1 1 1 1 1 1 1 1 2 3 3 3 2 1 0 0 -0 0 -1 -1 -1 -2 -2 -3 -3 -3 -3 -3 -4 -4 -4 -4 -5 -4 -4 -4 -5 -5 -5 -5 -5 -6 -6 -6 -6 -6 -7 -7 -7 -7 -7 -7
1 1 1 2 2 1 2 1 1 1 2 3 3 2 2 2 1 0 -0 0 -0 -1 -2 -2 -3 -2 -3 -3 -3 -3 -4 -4 -4 -5 -4 -4 -5 -6 -5 -6 -6 -6 -5 -5 -5 -6 -6 -7 -7 -7 -7 -7 -7 -8
1 1 1 1 2 1 1 2 2 2 2 2 1 2 2 2 1 1 -0 -1 -1 -2 -2 -2 -3 -2 -3 -3 -3 -4 -4 -4 -4 -4 -5 -5 -5 -5 -6 -6 -6 -6 -7 -6 -6 -6 -7 -7 -7 -7 -8 -8 -8 -7
1 1 1 0 0 1 2 2 2 2 3 3 2 2 1 2 1 0 0 -0 -1 -2 -2 -2 -3 -3 -3 -3 -4 -4 -4 -5 -5 -4 -5 -5 -6 -5 -6 -6 -7 -7 -7 -6 -7 -7 -7 -7 -8 -8 -8 -8 -8 -8
1 1 0 0 1 2 2 2 2 3 3 1 3 3 2 2 1 1 1 0 -0 -1 -2 -2 -3 -3 -3 -3 -3 -4 -5 -5 -5 -5 -5 -5 -6 -6 -6 -7 -8 -8 -8 -8 -7 -7 -7 -8 -8 -8 -8 -8 -8 -9
1 2 2 2 2 2 2 2 2 2 3 2 3 3 3 2 1 1 1 0 -0 -1 -2 -3 -3 -3 -3 -4 -4 -5 -5 -5 -5 -6 -6 -7 -7 -7 -8 -8 -8 -9 -9 -9 -9 -8 -8 -8 -8 -8 -9 -9 -9 -10
1 2 2 2 3 3 2 2 3 2 4 4 3 1 2 2 1 1 1 -0 -1 -1 -2 -2 -3 -3 -4 -4 -5 -5 -5 -6 -6 -6 -7 -8 -8 -8 -9 -9 -9 -9 -9 -9 -9 -8 -8 -8 -8 -9 -9 -10 -9 -10
2 2 2 3 3 4 3 3 4 4 4 4 3 2 2 2 2 1 0 0 -0 -0 -0 -1 -1 -2 -2 -2 -5 -4 -5 -5 -6 -6 -7 -8 -9 -9 -9 -9 -9 -9 -9 -9 -8 -8 -9 -8 -9 -9 -9 -10 -10 -10
2 2 3 3 3 3 4 4 4 4 3 3 3 2 2 3 2 2 1 1 0 0 -0 -0 -0 -1 -1 -2 -3 -5 -6 -7 -7 -7 -8 -9 -9 -9 -10 -9 -9 -9 -9 -9 -9 -9 -9 -9 -9 -9 -10 -10 -10 -10
3 2 3 3 3 3 4 4 3 2 3 4 4 3 3 2 2 2 1 0 -0 -2 -3 -3 -2 -4 -4 -2 -2 -3 -4 -6 -6 -7 -7 -8 -8 -9 -10 -10 -10 -10 -10 -9 -9 -9 -9 -9 -10 -10 -10 -10 -11 -11
2 3 4 4 4 2 2 4 3 3 4 3 3 3 2 3 2 2 1 1 -1 -2 -2 -1 -1 -3 -3 -4 -2 -2 -3 -3 -4 -6 -7 -7 -8 -9 -9 -9 -10 -10 -10 -10 -10 -10 -9 -10 -10 -10 -10 -11 -10 -11
4 4 4 4 4 3 1 3 3 3 3 3 3 2 2 2 2 2 1 -0 -2 -1 -2 -3 -2 -1 -2 -2 -3 -3 -3 -3 -3 -4 -5 -7 -8 -6 -7 -9 -10 -9 -10 -10 -10 -10 -10 -10 -10 -11 -11 -11 -11 -11
4 4 4 4 4 3 3 4 4 4 2 2 3 2 2 2 2 1 1 0 -0 -2 -1 -1 -1 -1 -1 -1 -2 -2 -3 -3 -3 -4 -4 -5 -5 -6 -7 -9 -9 -9 -10 -10 -10 -10 -10 -10 -10 -11 -11 -11 -11 -11
4 4 4 4 4 4 3 4 4 4 4 4 3 3 2 1 1 1 1 1 0 -2 -1 -1 -0 -1 -1 -1 -2 -2 -2 -3 -3 -4 -4 -4 -5 -5 -5 -7 -7 -8 -9 -9 -10 -10 -10 -10 -10 -10 -10 -10 -10 -10
Height
3159 3156 3154 3152 3149 3148 3145 3141 3137 3135 3134 3133 3131 3129 3127 3124 3121 3118 3115 3111 3110 3108 3109 3106 3103 3101 3099 3096 3096 3095 3093 3090 3085 3083 3083 3081 3079 3077 3074 3073 3071 3069 3067 3063 3071 3072 3070 3067 3067 3072 3067 3064 3065 3066
3155 3153 3151 3149 3147 3145 3143 3140 3136 3134 3133 3132 3130 3129 3127 3125 3122 3118 3114 3112 3110 3109 3109 3106 3103 3102 3100 3098 3096 3094 3092 3090 3087 3085 3083 3081 3080 3077 3074 3071 3069 3069 3067 3066 3067 3066 3061 3060 3061 3061 3060 3059 3061 3060
3151 3150 3148 3147 3146 3144 3141 3139 3135 3133 3132 3130 3128 3127 3126 3124 3122 3119 3116 3114 3110 3107 3106 3103 3102 3100 3100 3098 3097 3095 3093 3090 3088 3087 3085 3082 3080 3077 3075 3073 3069 3067 3063 3063 3061 3059 3054 3055 3055 3053 3052 3050 3051 3051
3146 3145 3144 3144 3143 3142 3140 3137 3133 3131 3130 3129 3127 3125 3124 3122 3121 3118 3115 3113 3110 3107 3105 3104 3101 3099 3097 3097 3096 3094 3091 3088 3086 3085 3084 3082 3080 3078 3075 3074 3070 3066 3062 3058 3055 3053 3050 3048 3047 3044 3043 3043 3043 3042
3141 3141 3141 3141 3140 3139 3138 3135 3132 3130 3128 3127 3126 3123 3122 3120 3119 3117 3115 3113 3110 3110 3106 3103 3102 3100 3097 3094 3093 3092 3091 3089 3088 3086 3083 3081 3080 3077 3074 3072 3069 3065 3060 3059 3054 3050 3047 3044 3041 3038 3035 3035 3034 3035
3137 3137 3137 3138 3138 3137 3136 3134 3131 3129 3127 3126 3124 3122 3120 3118 3116 3115 3114 3112 3109 3106 3103 3101 3100 3098 3096 3093 3091 3091 3089 3088 3088 3087 3084 3081 3079 3078 3074 3070 3068 3063 3060 3056 3051 3046 3043 3040 3037 3032 3029 3028 3027 3028
3134 3134 3135 3135 3135 3135 3134 3132 3130 3127 3126 3124 3122 3120 3118 3117 3115 3114 3113 3110 3107 3105 3103 3100 3099 3097 3094 3091 3088 3087 3086 3086 3086 3083 3082 3079 3076 3075 3072 3069 3066 3063 3059 3054 3050 3047 3043 3038 3033 3028 3025 3023 3021 3021
3131 3131 3132 3132 3133 3132 3132 3130 3128 3126 3124 3122 3121 3118 3116 3114 3113 3111 3109 3106 3104 3103 3101 3100 3099 3095 3092 3090 3088 3087 3084 3082 3081 3080 3079 3078 3077 3073 3071 3067 3064 3062 3061 3057 3052 3047 3043 3038 3033 3027 3022 3020 3018 3017
3128 3129 3129 3130 3130 3130 3130 3129 3127 3125 3123 3120 3118 3116 3114 3112 3110 3107 3105 3103 3102 3102 3098 3098 3097 3093 3090 3088 3085 3083 3082 3079 3078 3076 3076 3074 3072 3070 3068 3067 3064 3060 3061 3059 3055 3051 3045 3039 3033 3029 3024 3020 3017 3015
3125 3126 3127 3127 3129 3128 3128 3127 3125 3123 3121 3119 3116 3113 3112 3109 3107 3105 3102 3100 3097 3095 3092 3091 3091 3090 3088 3083 3079 3079 3077 3076 3074 3074 3075 3070 3067 3066 3064 3064 3063 3061 3059 3057 3055 3051 3047 3043 3037 3031 3027 3023 3019 3016
3122 3124 3125 3126 3127 3127 3126 3124 3123 3121 3120 3117 3114 3112 3110 3107 3105 3103 3102 3100 3098 3095 3090 3086 3087 3086 3083 3079 3076 3077 3074 3071 3067 3068 3068 3065 3065 3064 3064 3061 3060 3059 3057 3055 3053 3050 3048 3043 3038 3035 3030 3027 3024 3021
3120 3121 3123 3124 3125 3125 3124 3123 3122 3120 3119 3117 3114 3111 3109 3106 3104 3103 3100 3096 3094 3091 3088 3084 3081 3081 3077 3064 3070 3069 3068 3066 3060 3062 3063 3061 3061 3061 3062 3063 3059 3057 3054 3052 3051 3050 3047 3044 3041 3039 3036 3031 3028 3024
3118 3120 3121 3122 3123 3122 3122 3121 3120 3119 3117 3115 3113 3111 3109 3108 3105 3101 3098 3096 3083 3075 3076 3081 3081 3074 3071 3067 3062 3058 3059 3058 3057 3059 3060 3060 3059 3059 3061 3060 3061 3058 3054 3054 3051 3049 3047 3045 3043 3040 3036 3033 3031 3027
3116 3118 3119 3120 3121 3121 3120 3119 3118 3117 3116 3114 3114 3112 3111 3107 3104 3100 3099 3094 3088 3082 3079 3081 3076 3073 3068 3066 3061 3061 3061 3060 3059 3060 3060 3055 3055 3057 3059 3059 3058 3058 3057 3051 3050 3049 3047 3047 3044 3043 3040 3035 3030 3028
3115 3116 3118 3118 3119 3119 3118 3117 3116 3115 3114 3115 3115 3111 3108 3106 3102 3098 3090 3073 3079 3085 3083 3079 3077 3072 3067 3066 3064 3062 3061 3061 3060 3059 3059 3057 3056 3057 3056 3055 3055 3055 3054 3053 3052 3047 3046 3046 3045 3042 3040 3037 3032 3028
3113 3115 3116 3116 3116 3116 3115 3114 3113 3112 3111 3111 3110 3108 3106 3100 3096 3093 3087 3085 3085 3082 3079 3077 3073 3070 3068 3067 3065 3064 3063 3062 3062 3061 3060 3058 3056 3056 3055 3054 3053 3054 3051 3050 3047 3048 3045 3044 3044 3042 3039 3036 3034 3030
3112 3113 3114 3114 3114 3114 3113 3112 3111 3110 3109 3110 3108 3105 3102 3099 3096 3092 3088 3087 3085 3084 3080 3076 3074 3072 3070 3068 3066 3065 3065 3064 3062 3059 3059 3057 3056 3055 3054 3052 3052 3050 3049 3045 3044 3044 3043 3043 3043 3041 3040 3037 3034 3031
3110 3112 3112 3112 3112 3111 3111 3110 3109 3109 3108 3107 3106 3103 3104 3096 3096 3093 3092 3089 3087 3083 3079 3076 3073 3074 3072 3070 3068 3067 3064 3063 3062 3061 3059 3057 3055 3053 3051 3050 3049 3047 3047 3044 3041 3040 3041 3041 3041 3041 3040 3039 3037 3033
3108 3110 3110 3110 3110 3110 3110 3109 3109 3108 3106 3103 3104 3103 3099 3096 3093 3092 3091 3088 3085 3081 3079 3077 3076 3075 3073 3071 3069 3066 3064 3062 3060 3058 3056 3052 3050 3049 3049 3047 3047 3045 3044 3042 3041 3037 3034 3039 3039 3040 3040 3038 3035 3034
3106 3107 3108 3108 3109 3109 3109 3109 3107 3105 3105 3104 3101 3101 3099 3096 3088 3091 3090 3088 3086 3085 3083 3080 3077 3075 3072 3071 3069 3066 3062 3059 3056 3054 3051 3046 3049 3047 3045 3044 3044 3044 3042 3040 3036 3035 3035 3036 3036 3036 3036 3036 3036 3032
3105 3106 3106 3106 3106 3107 3106 3107 3105 3104 3102 3102 3100 3095 3097 3095 3093 3092 3091 3090 3088 3087 3083 3081 3077 3074 3071 3069 3065 3061 3058 3055 3053 3050 3049 3046 3046 3044 3043 3043 3041 3036 3037 3031 3030 3029 3031 3032 3033 3032 3032 3030 3034 3031
3104 3104 3105 3104 3105 3105 3103 3103 3104 3102 3102 3099 3085 3095 3093 3097 3096 3093 3088 3088 3087 3085 3082 3079 3076 3072 3069 3065 3058 3057 3055 3051 3049 3047 3045 3044 3043 3043 3041 3038 3039 3038 3034 3031 3030 3027 3026 3030 3030 3031 3029 3033 3032 3031
3103 3103 3103 3103 3104 3104 3104 3101 3102 3099 3098 3096 3093 3095 3096 3097 3094 3092 3091 3089 3085 3082 3079 3075 3073 3070 3066 3063 3060 3057 3054 3053 3048 3045 3041 3042 3039 3036 3037 3033 3034 3034 3033 3032 3028 3022 3027 3028 3031 3033 3029 3031 3030 3028
3102 3102 3103 3104 3102 3101 3100 3100 3098 3098 3096 3081 3093 3093 3096 3096 3093 3093 3093 3090 3087 3085 3080 3074 3071 3071 3069 3067 3065 3060 3054 3054 3048 3044 3041 3039 3036 3033 3032 3032 3031 3032 3031 3029 3026 3026 3025 3025 3030 3029 3030 3030 3029 3029
3102 3102 3101 3100 3099 3099 3098 3099 3099 3099 3096 3091 3094 3094 3095 3094 3094 3093 3092 3090 3087 3083 3078 3074 3073 3071 3068 3064 3061 3057 3051 3049 3050 3043 3040 3037 3034 3032 3030 3030 3029 3031 3030 3030 3027 3025 3024 3022 3025 3029 3029 3029 3029 3028
3097 3098 3098 3097 3098 3097 3095 3096 3096 3094 3095 3093 3092 3085 3091 3091 3091 3091 3090 3087 3084 3079 3075 3072 3070 3068 3065 3060 3058 3054 3050 3049 3045 3042 3040 3038 3036 3033 3031 3030 3030 3031 3031 3030 3026 3024 3026 3027 3025 3029 3029 3028 3027 3027
3094 3094 3094 3094 3094 3096 3096 3094 3095 3093 3092 3092 3091 3090 3090 3089 3089 3089 3087 3083 3081 3076 3073 3070 3067 3065 3062 3059 3056 3052 3050 3047 3044 3041 3038 3037 3034 3033 3032 3030 3030 3030 3031 3031 3026 3025 3027 3028 3028 3029 3028 3028 3028 3027
3090 3092 3095 3097 3097 3097 3096 3094 3093 3092 3092 3090 3090 3089 3088 3090 3091 3088 3085 3082 3079 3075 3072 3069 3067 3064 3062 3059 3057 3055 3053 3049 3047 3045 3041 3039 3037 3034 3032 3030 3030 3031 3030 3030 3029 3029 3028 3030 3029 3030 3030 3030 3028 3028
3088 3092 3095 3095 3096 3095 3093 3092 3089 3081 3091 3092 3090 3088 3090 3087 3086 3084 3082 3080 3077 3076 3073 3071 3067 3065 3062 3058 3056 3054 3052 3053 3052 3048 3046 3044 3041 3038 3035 3035 3035 3034 3034 3031 3031 3030 3031 3030 3030 3030 3030 3029 3028 3027
3088 3092 3095 3094 3092 3086 3088 3088 3087 3091 3092 3092 3090 3088 3086 3085 3083 3081 3079 3078 3076 3076 3072 3069 3067 3065 3063 3060 3057 3055 3053 3051 3049 3050 3049 3045 3042 3040 3038 3038 3037 3038 3037 3036 3034 3032 3032 3031 3031 3031 3031 3029 3028 3026
3089 3092 3092 3091 3089 3082 3072 3083 3089 3091 3090 3090 3089 3088 3087 3083 3081 3080 3078 3076 3075 3072 3070 3069 3066 3064 3062 3060 3057 3054 3053 3051 3049 3048 3046 3044 3043 3040 3039 3039 3039 3039 3039 3038 3037 3037 3035 3034 3034 3031 3030 3028 3026 3026
3088 3088 3087 3088 3087 3083 3088 3088 3087 3086 3075 3076 3083 3084 3081 3080 3079 3079 3078 3075 3073 3071 3069 3068 3065 3063 3061 3059 3057 3055 3053 3051 3050 3048 3046 3045 3044 3042 3041 3042 3042 3042 3040 3040 3039 3037 3036 3034 3032 3031 3030 3028 3026 3026
3085 3085 3084 3084 3083 3084 3084 3084 3083 3083 3082 3082 3082 3080 3079 3079 3078 3077 3075 3073 3072 3071 3067 3065 3064 3062 3060 3058 3056 3054 3053 3051 3050 3049 3047 3045 3044 3043 3042 3042 3041 3040 3041 3041 3040 3039 3037 3035 3034 3032 3031 3030 3028 3026
Wind_Speed
17 15 12 11 11 13 16 16 12 10 7 5 6 8 11 14 18 19 15 18 13 8 8 11 14 12 13 13 9 9 6 11 13 7 4 5 6 7 10 12 12 10 8 16 21 21 20 15 16 16 19 26 27 30
16 16 12 10 10 12 14 15 12 9 9 7 6 7 9 12 15 17 17 15 15 8 2 10 11 9 9 10 11 7 9 8 13 8 7 3 4 7 10 10 6 5 6 6 9 10 16 18 22 25 30 33 32 37
14 15 11 10 9 11 13 14 12 8 7 8 7 8 9 10 12 14 15 12 13 9 12 12 14 14 6 6 9 9 7 9 12 11 7 7 6 7 6 7 12 11 17 12 18 15 19 18 25 29 33 36 33 33
11 12 10 9 8 9 11 14 12 6 5 8 8 8 8 8 10 12 13 13 12 13 8 10 12 17 6 7 7 9 9 12 11 15 11 13 9 6 11 10 13 16 12 15 20 27 31 34 33 36 37 38 33 33
10 11 9 7 7 8 9 12 11 7 6 8 8 7 8 8 9 10 9 10 10 11 13 10 8 10 16 7 10 7 7 8 11 11 9 12 10 8 12 9 15 18 17 13 19 18 20 20 24 29 32 31 26 25
9 11 9 7 6 8 8 10 10 9 8 8 9 8 9 9 9 11 10 7 11 12 15 7 8 12 12 13 4 10 12 7 7 8 9 9 9 9 10 11 12 16 17 18 21 12 7 13 20 19 18 17 21 19
9 10 7 7 6 7 7 8 10 9 9 9 9 9 10 10 8 9 12 14 13 11 12 10 6 9 9 13 7 10 7 10 9 5 7 10 12 13 9 14 14 17 16 21 25 21 9 13 15 14 12 16 19 19
9 9 7 6 6 7 6 7 10 10 10 10 11 11 10 10 10 12 13 15 12 12 10 4 9 9 14 12 6 8 9 10 8 8 5 9 7 11 6 12 13 13 10 16 16 25 17 21 16 15 11 9 9 13
10 9 6 5 5 5 5 7 9 11 12 12 13 12 11 8 11 11 10 8 10 10 7 5 10 13 11 13 8 13 7 11 9 9 8 9 10 4 7 4 10 11 11 12 13 14 17 24 23 18 16 8 5 7
11 8 7 5 5 5 5 7 10 12 13 13 15 13 7 12 10 10 6 8 8 8 12 12 5 13 14 18 15 8 8 8 8 8 6 13 10 5 8 10 11 7 10 11 9 18 20 18 17 21 18 14 10 6
10 8 7 6 6 5 6 7 10 12 14 14 13 14 15 12 9 6 6 6 6 9 10 6 7 13 11 18 15 10 11 8 8 9 7 5 4 3 3 12 14 14 13 15 12 14 19 21 20 17 19 14 12 11
9 9 7 7 7 6 5 6 9 11 14 15 15 12 11 6 4 4 6 5 7 6 6 11 11 13 18 14 17 11 14 9 7 9 6 4 5 5 2 2 10 14 14 18 18 16 14 18 23 21 19 17 18 14
11 8 7 7 7 6 5 7 9 11 13 15 9 6 5 3 6 6 6 14 15 32 12 19 26 21 25 24 17 8 4 6 2 3 3 4 8 8 1 5 2 6 10 8 13 17 17 11 11 19 21 17 22 18
10 8 6 7 6 6 7 9 10 10 11 10 8 8 3 5 6 12 15 20 22 14 13 18 18 26 15 10 8 3 4 4 2 1 0 4 3 7 4 5 5 2 5 10 14 8 14 11 10 11 14 14 22 20
9 7 6 6 6 6 7 9 10 10 9 4 5 5 7 10 19 14 18 23 16 18 20 18 15 12 17 9 6 4 4 2 1 3 7 7 8 5 7 6 4 5 7 5 8 16 8 12 8 9 15 10 18 18
8 6 6 5 5 6 8 10 10 9 10 3 5 5 10 20 21 13 23 22 19 19 22 14 10 6 6 8 5 6 7 5 7 5 8 12 14 8 8 7 6 6 13 14 2 9 7 9 11 9 14 10 13 21
8 6 6 5 5 7 8 8 6 6 3 4 4 9 17 20 27 18 24 18 17 12 14 12 7 5 8 6 8 7 8 10 10 10 6 7 10 9 9 6 10 3 9 17 8 5 3 7 7 8 10 15 11 10
6 5 6 4 5 5 5 5 5 2 5 6 7 7 11 5 15 19 10 16 15 13 11 13 6 7 7 9 13 13 12 9 6 5 8 13 17 13 9 10 8 7 5 13 16 11 11 3 2 9 9 10 10 12
5 5 6 4 4 4 4 1 1 3 7 5 7 6 11 17 16 13 9 9 10 16 13 15 7 7 8 9 13 15 12 13 11 11 14 14 20 4 14 11 11 11 11 10 14 22 3 6 2 1 4 4 7 3
5 5 5 5 5 4 1 2 5 3 3 2 14 5 8 9 6 8 9 20 9 10 9 9 14 8 14 13 12 15 16 19 18 14 24 7 11 6 11 9 8 6 10 10 19 7 7 8 3 8 1 4 4 7
5 5 5 5 6 6 6 6 12 7 10 8 12 9 5 17 13 7 12 9 9 9 9 9 14 16 16 16 17 17 18 15 15 16 13 12 16 10 10 11 9 8 15 7 10 10 13 6 7 7 10 8 4 7
4 4 3 4 4 3 5 5 7 14 8 13 2 7 13 8 4 11 12 14 11 12 13 13 15 17 14 21 16 18 22 19 19 16 13 10 7 11 10 9 4 7 13 17 14 4 6 1 11 6 8 1 3 9
4 4 5 5 4 6 5 4 5 4 6 5 4 6 6 8 7 13 11 12 9 13 14 21 21 14 20 14 21 16 19 20 23 25 9 8 16 18 18 2 2 4 8 10 7 1 5 8 1 2 13 6 6 7
5 4 3 3 5 3 4 6 4 5 10 7 3 7 3 7 11 12 9 10 15 10 16 21 8 14 12 11 10 15 20 13 20 23 12 13 4 14 16 18 6 5 8 10 14 15 15 1 3 6 5 4 3 4
5 5 4 7 9 7 7 6 9 5 7 3 1 1 4 4 5 3 7 11 10 11 13 13 10 7 9 9 9 9 14 9 4 16 16 16 17 13 12 10 4 7 7 6 7 4 5 11 11 2 6 3 3 5
7 7 6 6 5 9 7 4 5 4 2 3 5 2 4 3 3 3 6 10 11 17 13 10 8 6 7 11 9 10 11 8 6 10 7 6 6 7 7 2 2 5 7 5 11 9 6 2 10 7 7 7 8 1
9 6 9 14 7 8 9 11 2 1 3 3 6 2 3 1 1 3 6 16 18 21 16 13 13 9 11 11 9 15 14 11 9 15 13 8 7 8 8 6 2 3 3 5 9 11 10 6 4 4 3 5 4 4
12 7 9 8 7 6 7 6 3 4 4 5 6 11 5 4 6 11 13 17 19 18 14 15 15 11 12 13 12 6 7 10 11 13 12 11 8 5 4 4 8 4 5 2 4 2 1 3 10 1 4 5 4 3
12 9 9 8 9 9 8 7 9 7 4 6 11 7 4 14 15 15 14 15 15 4 5 6 11 6 11 16 15 13 7 4 5 8 9 6 7 7 7 10 11 11 8 7 2 0 3 2 3 2 4 4 5 5
8 8 8 8 13 22 15 14 1 5 4 4 4 4 5 13 13 15 14 12 8 4 11 6 9 7 6 9 14 13 11 8 3 3 2 1 4 4 6 6 7 5 4 5 10 10 8 8 9 8 5 2 2 5
5 7 10 11 12 10 11 8 3 5 3 1 3 1 2 11 14 12 11 10 8 13 7 5 10 12 12 11 12 13 12 10 7 6 4 5 3 5 4 5 6 5 5 4 3 3 3 4 5 8 6 7 5 1
9 10 10 13 16 13 7 5 5 8 14 6 3 4 10 13 10 12 19 16 13 5 8 10 11 13 12 10 10 10 10 9 8 7 6 5 4 4 7 5 5 2 3 4 4 3 4 5 7 4 5 8 8 7
9 9 11 11 14 3 6 7 4 5 5 7 3 3 6 6 7 16 20 15 13 5 14 14 13 12 11 11 10 9 9 8 7 6 5 6 6 6 5 3 1 3 6 4 4 7 7 7 6 7 8 7 6 7
Wind_Direction
312 312 315 319 327 338 343 350 356 356 343 346 5 6 9 11 17 16 17 27 25 60 37 18 19 9 19 30 37 332 21 347 341 353 335 320 307 312 312 305 295 288 241 207 236 246 257 249 269 242 251 255 259 254
305 308 307 310 323 333 340 347 352 348 346 333 321 328 347 355 360 2 4 17 11 36 304 336 351 13 17 37 35 11 19 12 16 360 17 349 329 344 342 321 280 286 228 259 239 244 244 243 246 249 261 267 264 261
297 299 299 302 319 334 338 346 349 343 339 336 323 312 317 336 351 355 354 348 0 2 354 357 352 339 302 353 26 44 359 10 360 22 2 18 33 8 7 345 338 286 287 275 257 240 273 263 258 261 263 264 263 258
284 289 290 295 313 324 335 349 355 356 333 333 328 324 323 323 337 349 349 346 348 353 345 329 360 8 303 272 320 348 17 9 332 6 3 347 278 290 312 303 343 339 310 298 290 275 273 273 273 271 268 270 263 260
271 281 280 284 309 320 332 349 358 356 339 328 328 317 318 320 326 338 345 344 339 342 330 312 273 326 8 306 294 308 315 358 332 338 333 341 -0 331 345 326 343 355 349 336 312 289 283 275 269 271 267 261 256 240
257 270 271 274 297 316 326 342 352 354 350 335 330 326 313 310 315 321 319 339 337 327 329 347 303 300 346 352 310 258 278 336 284 301 335 291 301 337 320 310 342 353 340 343 351 326 285 292 291 288 273 255 241 239
254 259 263 270 286 307 316 333 346 347 341 336 328 330 325 314 311 315 313 315 316 312 317 336 276 300 323 329 344 329 271 246 287 291 297 311 320 324 292 328 342 352 352 354 352 357 343 343 334 313 283 253 252 230
249 248 254 265 284 300 309 331 348 343 331 329 328 327 320 313 306 311 305 302 298 303 298 299 305 296 314 332 308 260 283 266 276 258 242 253 307 286 280 333 338 348 9 339 343 345 4 1 357 0 321 283 255 233
243 238 247 254 274 288 309 337 351 346 341 332 324 326 329 319 317 320 311 297 295 285 280 268 289 297 311 308 303 304 269 266 251 251 256 261 286 294 344 325 310 334 347 353 341 346 356 354 360 9 17 356 294 247
234 230 240 240 260 270 303 335 341 347 347 335 327 334 347 345 329 320 299 312 295 278 272 294 253 269 284 300 271 312 291 253 236 251 224 268 276 294 340 342 338 317 297 317 1 0 5 359 357 354 16 23 29 36
225 227 238 234 252 263 295 329 344 345 344 346 347 329 340 325 323 319 306 323 318 313 291 300 282 273 281 285 304 293 276 241 232 215 216 247 269 227 330 315 334 349 349 346 1 343 358 8 18 18 8 22 37 49
219 224 233 236 248 264 292 321 331 339 342 343 326 310 323 329 311 292 302 264 246 273 278 299 313 281 281 264 277 273 252 248 234 186 209 225 273 214 7 301 319 337 337 351 359 -0 6 12 15 12 7 11 16 25
219 222 228 237 247 262 288 312 321 328 332 336 357 354 337 330 290 268 273 313 324 331 320 339 327 333 319 314 274 206 242 257 151 195 217 255 262 201 29 341 9 331 334 338 333 345 2 11 11 359 4 9 3 17
212 218 227 233 242 265 292 305 313 314 322 345 328 319 287 274 264 315 322 311 330 346 4 336 333 326 331 318 275 7 283 316 4 36 211 20 266 122 298 236 252 326 302 315 333 345 352 15 2 13 7 354 351 10
209 217 229 234 249 276 296 305 305 301 309 330 289 276 268 292 306 305 304 310 357 329 325 329 322 309 306 301 329 325 320 310 322 37 16 43 52 353 343 354 330 320 302 315 317 323 350 352 6 7 355 359 351 5
203 218 231 240 260 281 297 302 299 296 304 281 250 257 279 306 316 314 320 339 348 334 338 336 323 321 332 336 329 338 339 332 328 4 314 303 320 344 317 328 343 329 297 270 183 273 329 339 347 353 6 17 5 31
207 216 236 249 279 296 303 303 296 297 256 244 283 300 313 333 330 353 334 349 354 346 337 328 332 336 321 338 345 354 355 327 312 333 313 311 326 313 308 349 316 332 304 311 277 284 207 324 337 332 8 14 2 29
207 220 242 253 279 297 305 302 301 272 277 290 355 12 317 318 322 326 353 347 8 3 4 7 13 2 352 347 335 329 329 342 324 296 315 305 299 307 328 314 311 347 325 309 329 310 291 222 328 18 350 23 12 5
211 218 242 265 274 296 319 253 313 234 266 322 352 335 324 329 326 350 353 334 5 353 21 5 353 357 352 354 336 330 319 316 308 316 300 287 314 310 325 341 347 319 300 303 302 299 260 290 235 14 349 1 360 9
230 237 243 257 249 270 294 215 280 213 253 202 288 347 335 328 331 334 7 10 1 7 354 337 337 355 320 339 317 316 315 305 308 293 297 327 298 294 285 267 291 297 304 264 275 259 275 285 305 244 240 5 16 332
215 235 251 254 249 246 221 208 257 266 270 254 251 333 12 359 15 8 355 357 353 356 347 348 330 326 314 311 314 316 314 315 316 304 294 279 294 296 320 310 289 316 291 194 232 208 229 204 305 209 203 84 33 28
200 225 243 243 245 275 249 218 287 308 306 290 23 300 31 351 342 322 300 13 351 346 322 319 325 330 334 351 349 357 359 358 344 323 293 303 330 325 285 273 308 309 303 304 298 243 106 326 309 301 52 62 284 292
212 248 275 238 223 231 213 203 242 241 274 298 313 25 25 3 323 326 23 349 351 354 334 326 335 5 346 350 339 351 4 334 334 342 349 291 324 314 288 274 42 338 320 282 329 233 316 279 322 259 263 285 284 72
229 274 166 229 229 207 173 238 234 258 276 21 39 11 357 350 319 27 2 8 351 344 325 326 0 345 359 356 347 336 313 331 334 330 351 299 321 323 313 284 31 27 354 356 280 309 281 238 68 252 180 112 309 299
239 220 202 195 200 231 260 244 274 282 290 271 308 5 334 327 324 337 352 340 337 323 327 346 359 335 319 328 338 329 327 5 357 310 314 324 326 339 354 13 42 18 47 2 304 300 237 136 102 344 64 98 328 313
223 216 203 192 218 234 246 228 351 174 266 308 258 207 358 297 262 286 321 333 338 341 345 347 348 353 333 343 352 352 5 45 316 306 328 339 347 316 325 10 20 67 35 13 326 357 277 267 129 79 335 3 12 100
215 212 221 190 206 241 258 239 240 251 274 260 300 275 274 21 331 303 317 322 335 345 354 357 347 351 357 360 357 349 8 28 10 14 25 37 7 42 47 24 172 120 60 67 343 52 75 75 7 103 27 21 28 336
196 194 221 229 238 266 292 309 277 249 292 21 301 24 59 2 332 310 308 328 339 350 3 7 5 6 17 13 13 18 346 348 357 358 13 34 37 20 61 41 70 60 48 146 239 311 177 117 107 117 298 303 297 337
220 218 208 233 223 236 243 262 275 221 88 334 322 35 2 320 327 332 337 337 343 11 349 338 353 356 341 359 11 12 32 103 294 328 17 7 8 17 53 78 51 47 6 26 340 316 250 260 259 271 3 15 324 296
212 193 223 236 235 239 242 216 102 33 319 330 308 299 300 349 351 340 335 341 356 330 326 336 358 0 343 334 357 3 8 14 64 145 169 325 32 52 67 76 91 81 81 39 13 26 41 49 19 32 352 328 286 290
200 221 233 243 272 281 278 101 93 265 271 337 305 40 295 305 335 352 341 334 321 329 347 335 337 351 343 339 337 348 357 1 11 18 40 62 65 12 92 98 83 53 51 37 46 355 348 15 344 318 333 318 344 316
209 221 233 249 260 268 155 191 236 272 287 58 352 243 310 331 338 19 347 337 332 292 317 327 331 345 341 338 341 341 344 349 359 14 31 43 26 29 66 67 58 11 29 28 24 344 6 358 338 15 346 349 13 5
208 226 233 261 285 282 191 201 234 266 261 250 235 282 297 302 295 349 348 337 328 262 292 319 331 336 338 340 345 347 348 350 353 6 22 35 41 41 61 118 163 99 78 48 16 4 8 17 7 4 6 2 1 357